Location: Most
(50.5330°N, 13.6500°E)
Time: 22:08:21
(UTC+01:00)

N. Korean satellite - Visible Passes

Search period start: 24 February 2020 00:00
Search period end: 05 March 2020 00:00
Orbit: 456 x 505 km, 97.2° (Epoch: 24 February)

Date Brightness Start Highest point End Pass type
(mag) Time Alt. Az. Time Alt. Az. Time Alt. Az.
24 Feb 9.9 04:51:54 10° NE 04:54:04 15° E 04:56:13 10° SE visible
24 Feb 6.8 06:24:07 10° N 06:27:47 54° WNW 06:31:24 10° SSW visible
25 Feb 6.8 05:58:31 10° NNE 06:02:15 78° E 06:05:57 10° S visible
25 Feb 10.2 18:13:47 10° WSW 18:15:33 13° W 18:17:22 10° WNW visible
26 Feb 8.2 05:33:07 10° NNE 05:36:39 39° E 05:40:08 10° SSE visible
27 Feb 9.4 05:08:01 10° NE 05:10:57 21° E 05:13:50 10° SE visible
28 Feb 10.1 04:43:40 10° ENE 04:45:08 12° E 04:46:36 10° ESE visible
28 Feb 6.6 06:15:16 10° N 06:18:58 68° WNW 06:22:37 10° SSW visible
29 Feb 7.2 05:49:43 10° NNE 05:53:25 62° E 05:57:03 10° S visible
01 Mar 8.7 05:24:24 10° NNE 05:27:46 32° E 05:31:04 10° SSE visible
02 Mar 9.8 04:59:27 10° NE 05:02:01 18° E 05:04:32 10° SE visible
03 Mar 6.6 06:06:24 10° NNE 06:10:07 85° WNW 06:13:46 10° SSW visible
03 Mar 10.7 18:22:28 10° WSW 18:23:30 11° W 18:24:32 10° WNW visible
04 Mar 7.7 05:40:55 10° NNE 05:44:32 48° E 05:48:04 10° S visible
